FW1695 Weather Reports


time (UTC)temp
C
wind
direction
speed
KPH
gust
KPH
rain 1hr
cm
rain 24hr
cm
rain mn
cm
humidity
%
barometer
mb
20200229071016 8 141 0.0 0.0 0.00 0.00 0.00 60 1029.4
20200229070516 9 141 0.0 0.0 0.00 0.00 0.00 60 1029.4
20200229070020 9 139 0.0 0.0 0.00 0.00 0.00 59 1029.4
20200229065514 9 139 0.0 0.0 0.00 0.00 0.00 58 1029.5
20200229065012 9 138 0.0 1.6 0.00 0.00 0.00 58 1029.5
20200229064533 10 136 0.0 1.6 0.00 0.00 0.00 58 1029.4
20200229063517 10 141 0.0 1.6 0.00 0.00 0.00 57 1029.4
20200229063020 10 141 0.0 1.6 0.00 0.00 0.00 57 1029.5
20200229062509 10 140 0.0 1.6 0.00 0.00 0.00 57 1029.6
20200229062009 11 192 0.0 6.4 0.00 0.00 0.00 58 1029.7
20200229061508 11 203 0.0 6.4 0.00 0.00 0.00 57 1029.6
20200229061006 11 190 1.6 6.4 0.00 0.00 0.00 57 1029.7
20200229060511 11 181 1.6 6.4 0.00 0.00 0.00 56 1029.7
20200229060022 11 166 0.0 8.0 0.00 0.00 0.00 56 1029.8
20200229055504 11 165 1.6 8.0 0.00 0.00 0.00 56 1029.8
20200229055006 11 186 0.0 4.8 0.00 0.00 0.00 55 1029.9
20200229054509 11 146 0.0 8.0 0.00 0.00 0.00 55 1029.8
20200229053504 11 174 3.2 9.7 0.00 0.00 0.00 54 1029.8
20200229053004 11 162 1.6 6.4 0.00 0.00 0.00 54 1029.7
20200229052503 11 215 0.0 6.4 0.00 0.00 0.00 54 1029.7
20200229052003 11 176 1.6 6.4 0.00 0.00 0.00 54 1029.7
20200229051509 11 184 0.0 3.2 0.00 0.00 0.00 53 1029.6
20200229051006 11 180 0.0 3.2 0.00 0.00 0.00 52 1029.6
20200229050505 11 173 0.0 6.4 0.00 0.00 0.00 52 1029.5
20200229050011 11 184 0.0 8.0 0.00 0.00 0.00 52 1029.4
20200229045510 12 172 0.0 8.0 0.00 0.00 0.00 51 1029.4
20200229045001 12 187 0.0 4.8 0.00 0.00 0.00 51 1029.4
20200229044502 12 162 0.0 6.4 0.00 0.00 0.00 51 1029.4
20200229043600 12 176 0.0 8.0 0.00 0.00 0.00 50 1029.4
20200229043214 12 198 0.0 4.8 0.00 0.00 0.00 50 1029.4
20200229042635 12 182 0.0 8.0 0.00 0.00 0.00 50 1029.4
20200229042100 12 208 1.6 8.0 0.00 0.00 0.00 49 1029.4
20200229041700 12 193 0.0 8.0 0.00 0.00 0.00 49 1029.4
20200229041105 12 210 1.6 8.0 0.00 0.00 0.00 49 1029.3
20200229040600 13 195 3.2 12.9 0.00 0.00 0.00 49 1029.2
20200229040500 13 212 1.6 12.9 0.00 0.00 0.00 49 1029.2
20200229040128 13 175 4.8 12.9 0.00 0.00 0.00 49 1029.2
20200229035605 13 172 0.0 6.4 0.00 0.00 0.00 49 1029.2
20200229035104 13 162 0.0 6.4 0.00 0.00 0.00 48 1029.1
20200229034631 13 168 0.0 9.7 0.00 0.00 0.00 48 1028.9
20200229033559 13 169 0.0 8.0 0.00 0.00 0.00 48 1028.7
20200229033524 13 164 1.6 4.8 0.00 0.00 0.00 48 1028.6
20200229032600 13 184 0.0 3.2 0.00 0.00 0.00 48 1028.5
20200229032106 13 169 0.0 0.0 0.00 0.00 0.00 48 1028.3
20200229031753 13 168 0.0 3.2 0.00 0.00 0.00 48 1028.3
20200229031118 13 144 0.0 3.2 0.00 0.00 0.00 47 1028.3
20200229030558 13 159 0.0 6.4 0.00 0.00 0.00 48 1028.1
20200229030156 13 219 0.0 6.4 0.00 0.00 0.00 47 1028.0
20200229025608 14 148 0.0 16.1 0.00 0.00 0.00 47 1027.8
20200229025057 14 160 0.0 16.1 0.00 0.00 0.00 47 1027.7
20200229024647 14 136 0.0 14.5 0.00 0.00 0.00 47 1027.5
20200229023558 14 159 0.0 9.7 0.00 0.00 0.00 46 1027.3
20200229023215 15 210 1.6 16.1 0.00 0.00 0.00 46 1027.0
20200229022558 15 183 1.6 17.7 0.00 0.00 0.00 46 1026.9
20200229022057 15 193 4.8 20.9 0.00 0.00 0.00 46 1026.6
20200229021708 15 213 4.8 19.3 0.00 0.00 0.00 46 1026.5
20200229021057 15 231 9.7 19.3 0.00 0.00 0.00 46 1026.4
20200229020557 15 228 9.7 19.3 0.00 0.00 0.00 46 1026.2
20200229020157 15 210 8.0 22.5 0.00 0.00 0.00 46 1026.1
20200229015617 15 249 11.3 22.5 0.00 0.00 0.00 45 1026.1
20200229015112 15 221 8.0 24.1 0.00 0.00 0.00 45 1025.9
20200229014631 15 281 9.7 24.1 0.00 0.00 0.00 45 1026.1
20200229013603 16 204 11.3 27.4 0.00 0.00 0.00 44 1025.9
20200229013108 16 208 11.3 20.9 0.00 0.00 0.00 44 1025.8
20200229012612 16 278 9.7 27.4 0.00 0.00 0.00 43 1025.8
20200229012111 16 232 12.9 24.1 0.00 0.00 0.00 43 1025.8
20200229011613 16 302 11.3 27.4 0.00 0.00 0.00 42 1025.6
20200229011114 17 227 11.3 27.4 0.00 0.00 0.00 42 1025.6
20200229010554 17 231 6.4 24.1 0.00 0.00 0.00 41 1025.5
20200229005554 17 248 14.5 30.6 0.00 0.00 0.00 40 1025.4
20200229005053 18 236 8.0 24.1 0.00 0.00 0.00 39 1025.3
20200229004628 18 283 11.3 22.5 0.00 0.00 0.00 39 1025.2
20200229003600 19 262 9.7 20.9 0.00 0.00 0.00 37 1025.1
20200229003221 19 261 9.7 24.1 0.00 0.00 0.00 37 1025.1
20200229002619 20 284 11.3 24.1 0.00 0.00 0.00 36 1025.1
20200229002100 20 250 9.7 22.5 0.00 0.00 0.00 35 1025.0
20200229001639 20 257 11.3 22.5 0.00 0.00 0.00 35 1024.8
20200229001056 20 214 9.7 24.1 0.00 0.00 0.00 34 1024.8
20200229000558 21 321 11.3 24.1 0.00 0.00 0.00 34 1024.8
20200229000226 21 241 11.3 20.9 0.00 0.00 0.00 34 1024.8
20200228235603 21 269 11.3 20.9 0.00 0.00 0.00 34 1024.6
20200228235052 21 282 8.0 22.5 0.00 0.00 0.00 34 1024.6
20200228234654 22 3 14.5 22.5 0.00 0.00 0.00 33 1024.7
20200228233602 22 255 12.9 22.5 0.00 0.00 0.00 33 1024.5
20200228233144 22 318 9.7 25.7 0.00 0.00 0.00 32 1024.4
20200228232552 22 251 11.3 25.7 0.00 0.00 0.00 32 1024.3
20200228232051 23 259 11.3 20.9 0.00 0.00 0.00 32 1024.3
20200228231638 23 203 11.3 20.9 0.00 0.00 0.00 31 1024.2
20200228231059 23 250 8.0 19.3 0.00 0.00 0.00 31 1024.1
20200228230551 24 251 9.7 20.9 0.00 0.00 0.00 31 1024.1
20200228230144 24 228 9.7 20.9 0.00 0.00 0.00 31 1024.1
20200228225551 25 245 6.4 16.1 0.00 0.00 0.00 30 1023.9
20200228225057 26 205 4.8 16.1 0.00 0.00 0.00 28 1023.9
20200228224641 26 150 3.2 9.7 0.00 0.00 0.00 25 1023.7
20200228223551 26 159 1.6 11.3 0.00 0.00 0.00 26 1023.6
20200228223135 26 132 3.2 11.3 0.00 0.00 0.00 26 1023.5
20200228222550 26 84 6.4 12.9 0.00 0.00 0.00 26 1023.6
20200228222050 26 141 3.2 12.9 0.00 0.00 0.00 26 1023.6
20200228221712 26 158 1.6 14.5 0.00 0.00 0.00 26 1023.6
20200228221048 26 124 3.2 14.5 0.00 0.00 0.00 26 1023.6
20200228220620 26 126 4.8 14.5 0.00 0.00 0.00 26 1023.5
20200228220156 26 127 6.4 14.5 0.00 0.00 0.00 26 1023.5
20200228215547 26 143 3.2 12.9 0.00 0.00 0.00 27 1023.6
20200228215056 25 89 6.4 16.1 0.00 0.00 0.00 27 1023.7
20200228214604 25 132 4.8 12.9 0.00 0.00 0.00 27 1023.7
20200228213555 25 228 1.6 16.1 0.00 0.00 0.00 27 1023.8
20200228213112 25 89 6.4 16.1 0.00 0.00 0.00 28 1023.9
20200228212545 26 85 6.4 12.9 0.00 0.00 0.00 28 1023.9
20200228212052 26 131 4.8 14.5 0.00 0.00 0.00 27 1024.0
20200228212008 26 114 4.8 14.5 0.00 0.00 0.00 28 1023.9
20200228211640 26 137 6.4 14.5 0.00 0.00 0.00 28 1024.0
20200228211044 25 176 0.0 12.9 0.00 0.00 0.00 28 1023.9
20200228210543 25 130 4.8 17.7 0.00 0.00 0.00 28 1024.1
20200228210130 25 89 9.7 17.7 0.00 0.00 0.00 28 1024.1
20200228205541 25 135 4.8 11.3 0.00 0.00 0.00 29 1024.2
20200228205041 25 142 4.8 9.7 0.00 0.00 0.00 29 1024.3
20200228204610 25 191 3.2 9.7 0.00 0.00 0.00 29 1024.5
20200228203542 24 135 3.2 17.7 0.00 0.00 0.00 31 1024.8
20200228203135 24 137 8.0 17.7 0.00 0.00 0.00 31 1024.8
20200228202545 25 138 3.2 17.7 0.00 0.00 0.00 31 1024.9
20200228202050 25 133 6.4 17.7 0.00 0.00 0.00 31 1024.9
20200228201634 25 127 8.0 14.5 0.00 0.00 0.00 30 1025.1
20200228201041 25 106 1.6 12.9 0.00 0.00 0.00 30 1025.0
20200228200541 25 135 4.8 11.3 0.00 0.00 0.00 30 1025.2
20200228200123 25 117 3.2 11.3 0.00 0.00 0.00 30 1025.2
20200228195547 25 129 1.6 14.5 0.00 0.00 0.00 31 1025.3
20200228195031 24 119 8.0 19.3 0.00 0.00 0.00 32 1025.4
20200228194632 24 116 9.7 19.3 0.00 0.00 0.00 31 1025.5
20200228193530 23 198 4.8 12.9 0.00 0.00 0.00 32 1025.7
20200228193058 23 227 3.2 11.3 0.00 0.00 0.00 32 1025.8
20200228192530 23 240 4.8 11.3 0.00 0.00 0.00 32 1025.9
20200228192031 23 169 0.0 19.3 0.00 0.00 0.00 32 1026.1
20200228191551 23 146 3.2 19.3 0.00 0.00 0.00 32 1026.1
20200228191033 23 198 1.6 12.9 0.00 0.00 0.00 32 1026.2
20200228190530 23 109 6.4 12.9 0.00 0.00 0.00 32 1026.3
20200228190110 23 117 4.8 12.9 0.00 0.00 0.00 33 1026.5
20200228185524 23 162 1.6 9.7 0.00 0.00 0.00 33 1026.6
20200228185023 22 245 4.8 12.9 0.00 0.00 0.00 33 1026.7
20200228183520 22 62 1.6 8.0 0.00 0.00 0.00 35 1027.0
20200228183037 22 221 3.2 12.9 0.00 0.00 0.00 35 1027.2
20200228182543 22 122 3.2 12.9 0.00 0.00 0.00 36 1027.3
20200228182023 22 122 1.6 9.7 0.00 0.00 0.00 35 1027.4
20200228181518 21 136 3.2 9.7 0.00 0.00 0.00 36 1027.5
20200228181017 21 131 3.2 9.7 0.00 0.00 0.00 36 1027.6
20200228180516 21 141 0.0 11.3 0.00 0.00 0.00 37 1027.7
20200228180017 20 149 1.6 11.3 0.00 0.00 0.00 38 1028.1
20200228175515 20 167 3.2 11.3 0.00 0.00 0.00 38 1028.1
20200228175016 20 120 4.8 11.3 0.00 0.00 0.00 37 1028.2
20200228174540 20 171 1.6 8.0 0.00 0.00 0.00 38 1028.3
20200228173514 19 78 3.2 6.4 0.00 0.00 0.00 41 1028.5
20200228173037 19 203 1.6 8.0 0.00 0.00 0.00 40 1028.6
20200228172513 19 173 0.0 6.4 0.00 0.00 0.00 41 1028.6
20200228172013 18 180 1.6 6.4 0.00 0.00 0.00 41 1028.7
20200228171543 18 184 3.2 6.4 0.00 0.00 0.00 42 1028.8
20200228171010 17 161 0.0 6.4 0.00 0.00 0.00 43 1028.8
20200228170512 17 195 0.0 6.4 0.00 0.00 0.00 44 1029.0
20200228170031 17 127 1.6 6.4 0.00 0.00 0.00 44 1029.2
20200228165518 16 175 0.0 6.4 0.00 0.00 0.00 45 1029.3
20200228165005 16 190 1.6 6.4 0.00 0.00 0.00 46 1029.4
20200228164505 16 185 1.6 8.0 0.00 0.00 0.00 47 1029.4
20200228163505 15 158 0.0 8.0 0.00 0.00 0.00 48 1029.6
20200228163036 15 222 1.6 8.0 0.00 0.00 0.00 48 1029.8
20200228162508 15 143 1.6 4.8 0.00 0.00 0.00 48 1029.7
20200228162005 15 207 0.0 6.4 0.00 0.00 0.00 48 1029.7
20200228161501 14 131 0.0 6.4 0.00 0.00 0.00 50 1029.7
20200228161100 13 178 1.6 6.4 0.00 0.00 0.00 51 1029.6
20200228160558 13 123 1.6 8.0 0.00 0.00 0.00 51 1029.7
20200228160117 13 163 1.6 8.0 0.00 0.00 0.00 52 1029.7
20200228155606 13 135 0.0 6.4 0.00 0.00 0.00 53 1029.6
20200228155100 12 142 1.6 8.0 0.00 0.00 0.00 54 1029.6
20200228154600 12 141 1.6 9.7 0.00 0.00 0.00 55 1029.5
20200228154109 12 137 1.6 8.0 0.00 0.00 0.00 56 1029.5
20200228153555 11 131 3.2 8.0 0.00 0.00 0.00 56 1029.5
20200228153206 11 140 1.6 8.0 0.00 0.00 0.00 56 1029.3
20200228152554 11 132 1.6 6.4 0.00 0.00 0.00 56 1029.3
20200228152102 11 134 1.6 6.4 0.00 0.00 0.00 56 1029.2
20200228151604 11 139 0.0 6.4 0.00 0.00 0.00 58 1029.2
20200228151051 11 139 0.0 6.4 0.00 0.00 0.00 58 1029.1
20200228150552 10 139 0.0 4.8 0.00 0.00 0.00 58 1029.1
20200228150107 10 146 0.0 3.2 0.00 0.00 0.00 59 1028.9
20200228145548 10 162 0.0 3.2 0.00 0.00 0.00 59 1029.0
20200228145053 10 156 0.0 3.2 0.00 0.00 0.00 59 1028.9
20200228144617 10 145 0.0 0.0 0.00 0.00 0.00 60 1028.8
20200228144046 10 141 0.0 0.0 0.00 0.00 0.00 61 1028.8
20200228143547 10 141 0.0 0.0 0.00 0.00 0.00 61 1028.8
20200228143116 9 140 0.0 0.0 0.00 0.00 0.00 63 1028.8
20200228142544 8 139 0.0 1.6 0.00 0.00 0.00 64 1028.8
20200228142047 8 138 0.0 1.6 0.00 0.00 0.00 65 1028.7
20200228141617 7 137 0.0 0.0 0.00 0.00 0.00 66 1028.6
20200228141043 7 136 0.0 1.6 0.00 0.00 0.00 67 1028.7
20200228140555 7 136 0.0 1.6 0.00 0.00 0.00 68 1028.6
20200228140149 6 134 0.0 1.6 0.00 0.00 0.00 69 1028.6
20200228135549 6 132 0.0 1.6 0.00 0.00 0.00 69 1028.5
20200228135041 6 138 0.0 1.6 0.00 0.00 0.00 68 1028.4
20200228134727 6 140 0.0 1.6 0.00 0.00 0.00 68 1028.3
20200228134052 7 176 0.0 1.6 0.00 0.00 0.00 70 1028.2
20200228133541 6 176 0.0 3.2 0.00 0.00 0.00 70 1028.1
20200228133047 6 189 0.0 6.4 0.00 0.00 0.00 71 1028.0
20200228132544 6 203 0.0 6.4 0.00 0.00 0.00 71 1027.9
20200228132036 6 174 0.0 4.8 0.00 0.00 0.00 71 1027.8
20200228131556 6 221 0.0 4.8 0.00 0.00 0.00 71 1027.8
20200228131033 6 193 0.0 6.4 0.00 0.00 0.00 72 1027.8
20200228130541 6 255 1.6 3.2 0.00 0.00 0.00 73 1027.8
20200228130040 6 145 0.0 1.6 0.00 0.00 0.00 72 1027.9
20200228125528 6 145 0.0 3.2 0.00 0.00 0.00 71 1027.6
20200228125028 6 192 0.0 3.2 0.00 0.00 0.00 72 1027.4
20200228124626 6 199 0.0 0.0 0.00 0.00 0.00 72 1027.4
20200228124045 6 209 0.0 3.2 0.00 0.00 0.00 72 1027.3
20200228123528 6 210 0.0 3.2 0.00 0.00 0.00 72 1027.3
20200228123031 6 217 0.0 3.2 0.00 0.00 0.00 74 1027.3
20200228122528 5 181 0.0 0.0 0.00 0.00 0.00 75 1027.3
20200228122056 5 140 0.0 0.0 0.00 0.00 0.00 74 1027.3
20200228121609 5 140 0.0 0.0 0.00 0.00 0.00 74 1027.2
20200228121026 5 140 0.0 0.0 0.00 0.00 0.00 74 1027.3
20200228120526 5 140 0.0 0.0 0.00 0.00 0.00 74 1027.3
20200228120033 5 140 0.0 0.0 0.00 0.00 0.00 73 1027.2
20200228115524 5 140 0.0 0.0 0.00 0.00 0.00 73 1027.1
20200228115025 5 139 0.0 0.0 0.00 0.00 0.00 73 1027.2
20200228114525 5 139 0.0 0.0 0.00 0.00 0.00 74 1027.1
20200228114031 5 139 0.0 0.0 0.00 0.00 0.00 74 1027.1
20200228113532 5 139 0.0 0.0 0.00 0.00 0.00 74 1027.1
20200228113047 5 139 0.0 0.0 0.00 0.00 0.00 74 1027.0
20200228112527 5 139 0.0 0.0 0.00 0.00 0.00 73 1027.0
20200228112025 5 139 0.0 0.0 0.00 0.00 0.00 73 1026.9
20200228111546 5 139 0.0 0.0 0.00 0.00 0.00 73 1026.9
20200228111023 5 139 0.0 0.0 0.00 0.00 0.00 72 1026.8
20200228110525 6 139 0.0 0.0 0.00 0.00 0.00 72 1026.8
20200228110028 6 139 0.0 0.0 0.00 0.00 0.00 72 1026.9
20200228105522 6 139 0.0 0.0 0.00 0.00 0.00 72 1027.0
20200228105022 6 139 0.0 0.0 0.00 0.00 0.00 71 1027.0
20200228104558 6 139 0.0 1.6 0.00 0.00 0.00 71 1026.9
20200228104034 6 138 0.0 1.6 0.00 0.00 0.00 71 1027.0
20200228103518 6 138 0.0 1.6 0.00 0.00 0.00 71 1027.0
20200228103059 6 137 0.0 1.6 0.00 0.00 0.00 71 1027.0
20200228102523 6 136 0.0 0.0 0.00 0.00 0.00 70 1026.9
20200228102018 6 135 0.0 1.6 0.00 0.00 0.00 71 1026.8
20200228101531 6 143 0.0 0.0 0.00 0.00 0.00 71 1026.9
20200228101022 6 143 0.0 0.0 0.00 0.00 0.00 70 1026.9
20200228100521 6 142 0.0 0.0 0.00 0.00 0.00 70 1026.9
20200228100033 6 142 0.0 0.0 0.00 0.00 0.00 70 1027.0
20200228095515 6 141 0.0 0.0 0.00 0.00 0.00 69 1027.0
20200228095012 6 141 0.0 0.0 0.00 0.00 0.00 68 1027.0
20200228094520 7 141 0.0 0.0 0.00 0.00 0.00 68 1027.0
20200228094011 7 140 0.0 1.6 0.00 0.00 0.00 68 1027.0
20200228093511 7 140 0.0 1.6 0.00 0.00 0.00 68 1027.0
20200228093029 7 139 0.0 0.0 0.00 0.00 0.00 68 1027.0
20200228092510 7 139 0.0 0.0 0.00 0.00 0.00 68 1027.0
20200228092009 7 139 0.0 1.6 0.00 0.00 0.00 67 1027.0
20200228091537 7 138 0.0 1.6 0.00 0.00 0.00 67 1027.0
20200228091014 7 137 0.0 1.6 0.00 0.00 0.00 67 1026.9
20200228090507 7 136 0.0 1.6 0.00 0.00 0.00 66 1027.0
20200228090012 7 134 0.0 1.6 0.00 0.00 0.00 66 1027.1
20200228085506 7 134 0.0 1.6 0.00 0.00 0.00 66 1027.1
20200228085009 7 142 0.0 1.6 0.00 0.00 0.00 66 1027.1
20200228084507 7 142 0.0 1.6 0.00 0.00 0.00 65 1027.0
20200228084004 8 142 0.0 1.6 0.00 0.00 0.00 65 1027.1
20200228083503 8 141 0.0 1.6 0.00 0.00 0.00 65 1027.1
20200228083010 8 141 0.0 1.6 0.00 0.00 0.00 64 1027.1
20200228082502 8 152 0.0 1.6 0.00 0.00 0.00 64 1027.1
20200228082002 8 152 0.0 1.6 0.00 0.00 0.00 64 1027.2
20200228081510 8 152 0.0 0.0 0.00 0.00 0.00 64 1027.2
20200228081002 8 152 0.0 0.0 0.00 0.00 0.00 64 1027.1
20200228080505 8 152 0.0 0.0 0.00 0.00 0.00 63 1027.2
20200228080138 8 152 0.0 0.0 0.00 0.00 0.00 63 1027.2
20200228080004 8 152 0.0 0.0 0.00 0.00 0.00 63 1027.2
20200228075600 8 152 0.0 0.0 0.00 0.00 0.00 63 1027.2
20200228075059 8 158 0.0 0.0 0.00 0.00 0.00 62 1027.2
20200228074643 8 158 0.0 0.0 0.00 0.00 0.00 62 1027.2
20200228074057 9 158 0.0 0.0 0.00 0.00 0.00 60 1027.2
20200228073120 10 204 0.0 0.0 0.00 0.00 0.00 60 1027.2
20200228072548 10 205 0.0 0.0 0.00 0.00 0.00 60 1027.2
20200228072046 10 207 0.0 1.6 0.00 0.00 0.00 60 1027.2
20200228071621 10 210 0.0 3.2 0.00 0.00 0.00 60 1027.2